This is the latest recevied weather packets stored in our database for station/object WR7DW-3. If no packets are shown the sender has not sent any weather packets the latest 10 day(s).
| Time | Temp. | Humidity | Pressure | Rain* | Wind** | Luminosity | Snow |
|---|---|---|---|---|---|---|---|
| 1777515294 | 3.33° C | 62% | 1019 hPa | 0 mm | - | - | - |
| 1777514394 | 3.33° C | 66% | 1019 hPa | 0 mm | - | - | - |
| 1777513494 | 3.33° C | 66% | 1018.9 hPa | 0 mm | - | - | - |
| 1777512594 | 3.33° C | 68% | 1019 hPa | 0 mm | - | - | - |
| 1777511694 | 3.33° C | 67% | 1018.9 hPa | 0 mm | - | - | - |
| 1777510794 | 3.33° C | 66% | 1019 hPa | 0 mm | - | - | - |
| 1777509894 | 3.33° C | 58% | 1019 hPa | 0 mm | - | - | - |
| 1777508994 | 3.89° C | 61% | 1018.8 hPa | 0 mm | - | - | - |
| 1777508094 | 3.89° C | 70% | 1018.9 hPa | 0 mm | - | - | - |
| 1777507195 | 3.33° C | 71% | 1018.9 hPa | 0 mm | - | - | - |
| 1777506294 | 3.33° C | 74% | 1019 hPa | 0 mm | - | - | - |
| 1777505394 | 3.33° C | 74% | 1019 hPa | 0 mm | - | - | - |
| 1777504494 | 3.33° C | 75% | 1019.1 hPa | 0 mm | - | - | - |
| 1777503594 | 2.78° C | 75% | 1019.2 hPa | 0 mm | - | - | - |
| 1777501795 | 2.22° C | 79% | 1019.2 hPa | 0 mm | - | - | - |
| 1777500895 | 2.78° C | 77% | 1019.2 hPa | 0 mm | - | - | - |
| 1777499995 | 3.89° C | 73% | 1019.3 hPa | 0 mm | - | - | - |
| 1777499095 | 3.89° C | 81% | 1019.1 hPa | 0 mm | - | - | - |
| 1777498195 | 2.22° C | 82% | 1019.2 hPa | 0 mm | - | - | - |
| 1777497295 | 1.67° C | 83% | 1019.2 hPa | 0 mm | - | - | - |
| 1777496398 | 1.11° C | 87% | 1019.2 hPa | 0 mm | - | - | - |
| 1777495495 | 1.67° C | 87% | 1019 hPa | 0 mm | - | - | - |
| 1777494597 | 1.11° C | 94% | 1019 hPa | 0 mm | - | - | - |
| 1777493696 | 1.11° C | 93% | 1018.9 hPa | 0 mm | - | - | - |
| 1777492795 | 1.67° C | 93% | 1019.1 hPa | 0 mm | - | - | - |
* Rain latest hour (hover to see other rain measurements)
** Current wind speed in m/s (hover to see current wind gust speed)